User: anonymous   Login
Location: Caltech
(34.1382°N, 118.1253°W)
Time: 04:26:43
(UTC-08:00)
Language:

Iridium 14 - Orbit

View from above orbital plane
View from above orbital plane
View from above satellite
View from above satellite

Ground track
Ground track

The orbit data is extracted from the following two-line orbital elements,

1 25777U 99032A   15025.58889792  .00000106  00000-0  30779-4 0  2530
2 25777 086.3941 229.0685 0001808 095.7912 316.9609 14.34212521829461
Epoch (UTC): 25 January 2015 14:08:00
Eccentricity: 0.0001808
inclination: 86.3941°
perigee height: 776 km
apogee height: 779 km
right ascension of ascending node: 229.0685°
argument of perigee: 95.7912°
revolutions per day: 14.34212521
mean anomaly at epoch: 316.9609°
orbit number at epoch: 82946

The dashed part of the orbit path shows where the satellite is in the earth's shadow,  

DLR